Time,TemperatureF,DewpointF,PressureIn,WindDirection,WindDirectionDegrees,WindSpeedMPH,WindSpeedGustMPH,Humidity,HourlyPrecipIn,Conditions,Clouds,dailyrainin,SoftwareType,DateUTC
2013-07-31 00:00:00,66.2,63.2,30.08,SE,142,3.0,3.0,90,0.00,,,0.00,Wunderground v.1.15,2013-07-31 04:00:00,
2013-07-31 00:02:00,66.2,63.2,30.08,SSE,158,3.0,3.0,90,0.00,,,0.00,Wunderground v.1.15,2013-07-31 04:02:00,
2013-07-31 00:08:00,66.1,63.1,30.08,SE,128,3.0,3.0,90,0.00,,,0.00,Wunderground v.1.15,2013-07-31 04:08:00,
2013-07-31 00:10:00,66.1,63.1,30.08,SE,139,3.0,3.0,90,0.00,,,0.00,Wunderground v.1.15,2013-07-31 04:10:00,
2013-07-31 00:14:00,66.1,63.1,30.08,SE,141,2.0,6.0,90,0.00,,,0.00,Wunderground v.1.15,2013-07-31 04:14:00,
2013-07-31 00:16:00,66.1,63.1,30.08,SE,125,3.0,6.0,90,0.00,,,0.00,Wunderground v.1.15,2013-07-31 04:16:00,
2013-07-31 00:18:00,66.1,63.1,30.08,SE,142,3.0,6.0,90,0.00,,,0.00,Wunderground v.1.15,2013-07-31 04:18:00,
2013-07-31 00:20:00,66.1,63.1,30.08,SSE,161,3.0,3.0,90,0.00,,,0.00,Wunderground v.1.15,2013-07-31 04:20:00,
2013-07-31 00:22:00,66.1,63.1,30.08,SE,138,4.0,4.0,90,0.00,,,0.00,Wunderground v.1.15,2013-07-31 04:22:00,
2013-07-31 00:26:00,66.1,63.1,30.08,SSE,147,3.0,5.0,90,0.00,,,0.00,Wunderground v.1.15,2013-07-31 04:26:00,
2013-07-31 00:28:00,66.1,63.1,30.08,SSE,147,3.0,5.0,90,0.00,,,0.00,Wunderground v.1.15,2013-07-31 04:28:00,
2013-07-31 00:30:00,66.1,63.1,30.08,SSE,158,3.0,3.0,90,0.00,,,0.00,Wunderground v.1.15,2013-07-31 04:30:00,
2013-07-31 00:34:00,66.1,63.1,30.08,SE,145,3.0,3.0,90,0.00,,,0.00,Wunderground v.1.15,2013-07-31 04:34:00,
2013-07-31 00:38:00,66.1,63.1,30.08,SE,139,4.0,4.0,90,0.00,,,0.00,Wunderground v.1.15,2013-07-31 04:38:00,
2013-07-31 00:44:00,66.2,63.2,30.08,SSE,148,4.0,5.0,90,0.00,,,0.00,Wunderground v.1.15,2013-07-31 04:44:00,
2013-07-31 00:46:00,66.2,63.2,30.08,SE,145,4.0,5.0,90,0.00,,,0.00,Wunderground v.1.15,2013-07-31 04:46:00,
2013-07-31 00:48:00,66.2,62.9,30.08,SE,139,4.0,6.0,89,0.00,,,0.00,Wunderground v.1.15,2013-07-31 04:48:00,
2013-07-31 00:50:00,66.2,62.9,30.08,ESE,122,4.0,4.0,89,0.00,,,0.00,Wunderground v.1.15,2013-07-31 04:50:00,
2013-07-31 00:52:00,66.2,62.9,30.08,SE,144,3.0,4.0,89,0.00,,,0.00,Wunderground v.1.15,2013-07-31 04:52:00,
2013-07-31 00:54:00,66.2,62.9,30.08,SSE,152,3.0,4.0,89,0.00,,,0.00,Wunderground v.1.15,2013-07-31 04:54:00,
2013-07-31 01:00:00,66.3,63.0,30.08,SE,139,3.0,3.0,89,0.00,,,0.00,Wunderground v.1.15,2013-07-31 05:00:00,
2013-07-31 01:06:00,66.3,63.0,30.08,SSE,154,4.0,5.0,89,0.00,,,0.00,Wunderground v.1.15,2013-07-31 05:06:00,
2013-07-31 01:08:00,66.3,63.0,30.08,SSE,148,4.0,6.0,89,0.00,,,0.00,Wunderground v.1.15,2013-07-31 05:08:00,
2013-07-31 01:10:00,66.3,62.6,30.08,SSE,153,4.0,5.0,88,0.00,,,0.00,Wunderground v.1.15,2013-07-31 05:10:00,
2013-07-31 01:12:00,66.4,62.7,30.08,SSE,157,5.0,5.0,88,0.00,,,0.00,Wunderground v.1.15,2013-07-31 05:12:00,
2013-07-31 01:14:00,66.4,62.7,30.08,SE,137,5.0,11.0,88,0.00,,,0.00,Wunderground v.1.15,2013-07-31 05:14:00,
2013-07-31 01:16:00,66.4,62.7,30.08,SE,133,5.0,11.0,88,0.00,,,0.00,Wunderground v.1.15,2013-07-31 05:16:00,
2013-07-31 01:18:00,66.3,63.0,30.08,SE,142,6.0,11.0,89,0.00,,,0.00,Wunderground v.1.15,2013-07-31 05:18:00,
2013-07-31 01:22:00,66.4,63.1,30.08,SE,134,6.0,7.0,89,0.00,,,0.00,Wunderground v.1.15,2013-07-31 05:22:00,
2013-07-31 01:24:00,66.3,63.0,30.08,SSE,155,6.0,7.0,89,0.00,,,0.00,Wunderground v.1.15,2013-07-31 05:24:00,
2013-07-31 01:26:00,66.3,63.0,30.08,SE,132,6.0,7.0,89,0.00,,,0.00,Wunderground v.1.15,2013-07-31 05:26:00,
2013-07-31 01:28:00,66.3,63.0,30.08,SE,146,6.0,7.0,89,0.00,,,0.00,Wunderground v.1.15,2013-07-31 05:28:00,
2013-07-31 01:32:00,66.3,63.0,30.08,SSE,147,5.0,6.0,89,0.00,,,0.00,Wunderground v.1.15,2013-07-31 05:32:00,
2013-07-31 01:34:00,66.3,63.0,30.08,SE,146,4.0,6.0,89,0.00,,,0.00,Wunderground v.1.15,2013-07-31 05:34:00,
2013-07-31 01:38:00,66.3,63.0,30.08,SSE,160,3.0,7.0,89,0.00,,,0.00,Wunderground v.1.15,2013-07-31 05:38:00,
2013-07-31 01:40:00,66.3,63.0,30.08,SSE,149,3.0,4.0,89,0.00,,,0.00,Wunderground v.1.15,2013-07-31 05:40:00,
2013-07-31 01:42:00,66.3,63.0,30.07,SE,142,3.0,4.0,89,0.00,,,0.00,Wunderground v.1.15,2013-07-31 05:42:00,
2013-07-31 01:44:00,66.3,63.0,30.07,SE,145,3.0,4.0,89,0.00,,,0.00,Wunderground v.1.15,2013-07-31 05:44:00,
2013-07-31 01:46:00,66.2,62.9,30.07,SE,137,3.0,4.0,89,0.00,,,0.00,Wunderground v.1.15,2013-07-31 05:46:00,
2013-07-31 01:50:00,66.2,63.2,30.07,SE,146,2.0,2.0,90,0.00,,,0.00,Wunderground v.1.15,2013-07-31 05:50:00,
2013-07-31 01:54:00,66.2,63.2,30.07,SSE,151,2.0,8.0,90,0.00,,,0.00,Wunderground v.1.15,2013-07-31 05:54:00,
2013-07-31 01:56:00,66.1,63.1,30.07,SSE,149,2.0,8.0,90,0.00,,,0.00,Wunderground v.1.15,2013-07-31 05:56:00,
2013-07-31 01:58:00,66.1,63.1,30.07,ESE,122,2.0,8.0,90,0.00,,,0.00,Wunderground v.1.15,2013-07-31 05:58:00,
2013-07-31 02:02:00,66.1,63.1,30.07,SE,140,2.0,3.0,90,0.00,,,0.00,Wunderground v.1.15,2013-07-31 06:02:00,
2013-07-31 02:04:00,66.1,63.1,30.07,SE,138,2.0,3.0,90,0.00,,,0.00,Wunderground v.1.15,2013-07-31 06:04:00,
2013-07-31 02:08:00,66.1,63.1,30.07,SE,143,2.0,3.0,90,0.00,,,0.00,Wunderground v.1.15,2013-07-31 06:08:00,
2013-07-31 02:10:00,66.1,63.1,30.07,ESE,123,2.0,2.0,90,0.00,,,0.00,Wunderground v.1.15,2013-07-31 06:10:00,
2013-07-31 02:14:00,66.1,63.1,30.07,SE,145,2.0,3.0,90,0.00,,,0.00,Wunderground v.1.15,2013-07-31 06:14:00,
2013-07-31 02:16:00,66.0,63.0,30.07,SSE,147,2.0,3.0,90,0.00,,,0.00,Wunderground v.1.15,2013-07-31 06:16:00,
2013-07-31 02:18:00,66.0,63.0,30.07,SSE,147,2.0,5.0,90,0.00,,,0.00,Wunderground v.1.15,2013-07-31 06:18:00,
2013-07-31 02:20:00,66.0,63.0,30.07,SSE,152,2.0,2.0,90,0.00,,,0.00,Wunderground v.1.15,2013-07-31 06:20:00,
2013-07-31 02:22:00,66.0,63.0,30.07,SSE,158,2.0,3.0,90,0.00,,,0.00,Wunderground v.1.15,2013-07-31 06:22:00,
2013-07-31 02:26:00,66.0,63.0,30.07,SE,136,3.0,3.0,90,0.00,,,0.00,Wunderground v.1.15,2013-07-31 06:26:00,
2013-07-31 02:28:00,66.0,63.0,30.07,SE,140,3.0,3.0,90,0.00,,,0.00,Wunderground v.1.15,2013-07-31 06:28:00,
2013-07-31 02:30:00,66.0,63.0,30.07,SE,129,2.0,2.0,90,0.00,,,0.00,Wunderground v.1.15,2013-07-31 06:30:00,
2013-07-31 02:32:00,66.0,63.0,30.07,SE,143,2.0,3.0,90,0.00,,,0.00,Wunderground v.1.15,2013-07-31 06:32:00,
2013-07-31 02:38:00,66.0,63.0,30.06,SE,133,2.0,6.0,90,0.00,,,0.00,Wunderground v.1.15,2013-07-31 06:38:00,
2013-07-31 02:40:00,66.0,63.0,30.06,SE,132,3.0,3.0,90,0.00,,,0.00,Wunderground v.1.15,2013-07-31 06:40:00,
2013-07-31 02:42:00,66.0,63.0,30.06,ESE,122,3.0,3.0,90,0.00,,,0.00,Wunderground v.1.15,2013-07-31 06:42:00,
2013-07-31 02:48:00,65.9,62.9,30.06,SE,141,3.0,3.0,90,0.00,,,0.00,Wunderground v.1.15,2013-07-31 06:48:00,
2013-07-31 02:52:00,65.9,62.9,30.05,SE,141,3.0,4.0,90,0.00,,,0.00,Wunderground v.1.15,2013-07-31 06:52:00,
2013-07-31 02:54:00,65.9,62.9,30.06,SE,135,3.0,5.0,90,0.00,,,0.00,Wunderground v.1.15,2013-07-31 06:54:00,
2013-07-31 02:56:00,65.8,62.8,30.05,SE,140,3.0,5.0,90,0.00,,,0.00,Wunderground v.1.15,2013-07-31 06:56:00,
2013-07-31 03:00:00,65.7,62.7,30.05,SE,131,3.0,6.0,90,0.00,,,0.00,Wunderground v.1.15,2013-07-31 07:00:00,
2013-07-31 03:02:00,65.7,62.7,30.05,SE,141,3.0,6.0,90,0.00,,,0.00,Wunderground v.1.15,2013-07-31 07:02:00,
2013-07-31 03:04:00,65.7,62.7,30.05,SE,133,2.0,6.0,90,0.00,,,0.00,Wunderground v.1.15,2013-07-31 07:04:00,
2013-07-31 03:08:00,65.7,62.7,30.05,SSE,152,2.0,6.0,90,0.00,,,0.00,Wunderground v.1.15,2013-07-31 07:08:00,
2013-07-31 03:10:00,65.7,63.0,30.05,SE,142,2.0,2.0,91,0.00,,,0.00,Wunderground v.1.15,2013-07-31 07:10:00,
2013-07-31 03:12:00,65.6,62.9,30.05,SSE,149,2.0,4.0,91,0.00,,,0.00,Wunderground v.1.15,2013-07-31 07:12:00,
2013-07-31 03:14:00,65.6,62.9,30.05,ESE,120,3.0,4.0,91,0.00,,,0.00,Wunderground v.1.15,2013-07-31 07:14:00,
2013-07-31 03:17:00,65.6,62.9,30.05,SE,139,3.0,4.0,91,0.00,,,0.00,Wunderground v.1.15,2013-07-31 07:17:00,
2013-07-31 03:18:00,65.6,62.9,30.05,SE,134,3.0,4.0,91,0.00,,,0.00,Wunderground v.1.15,2013-07-31 07:18:00,
2013-07-31 03:20:00,65.5,62.8,30.05,SE,141,3.0,5.0,91,0.00,,,0.00,Wunderground v.1.15,2013-07-31 07:20:00,
2013-07-31 03:22:00,65.5,62.8,30.05,SE,136,3.0,5.0,91,0.00,,,0.00,Wunderground v.1.15,2013-07-31 07:22:00,
2013-07-31 03:24:00,65.5,62.8,30.05,SE,132,3.0,5.0,91,0.00,,,0.00,Wunderground v.1.15,2013-07-31 07:24:00,
2013-07-31 03:28:00,65.5,62.8,30.05,SE,139,3.0,6.0,91,0.00,,,0.00,Wunderground v.1.15,2013-07-31 07:28:00,
2013-07-31 03:30:00,65.5,62.8,30.05,SE,130,3.0,3.0,91,0.00,,,0.00,Wunderground v.1.15,2013-07-31 07:30:00,
2013-07-31 03:34:00,65.4,62.7,30.05,SE,129,2.0,4.0,91,0.00,,,0.00,Wunderground v.1.15,2013-07-31 07:34:00,
2013-07-31 03:40:00,65.4,62.7,30.05,SE,126,3.0,3.0,91,0.00,,,0.00,Wunderground v.1.15,2013-07-31 07:40:00,
2013-07-31 03:42:00,65.4,62.7,30.05,SE,135,3.0,3.0,91,0.00,,,0.00,Wunderground v.1.15,2013-07-31 07:42:00,
2013-07-31 03:46:00,65.4,62.7,30.05,SSE,158,4.0,6.0,91,0.00,,,0.00,Wunderground v.1.15,2013-07-31 07:46:00,
2013-07-31 03:48:00,65.4,62.7,30.05,SE,135,4.0,6.0,91,0.00,,,0.00,Wunderground v.1.15,2013-07-31 07:48:00,
2013-07-31 03:52:00,65.4,62.7,30.05,SSE,147,4.0,5.0,91,0.00,,,0.00,Wunderground v.1.15,2013-07-31 07:52:00,
2013-07-31 03:54:00,65.4,62.7,30.05,SE,135,4.0,5.0,91,0.00,,,0.00,Wunderground v.1.15,2013-07-31 07:54:00,
2013-07-31 03:56:00,65.4,62.7,30.05,SE,133,4.0,5.0,91,0.00,,,0.00,Wunderground v.1.15,2013-07-31 07:56:00,
2013-07-31 04:02:00,65.4,62.7,30.05,SSE,156,4.0,5.0,91,0.00,,,0.00,Wunderground v.1.15,2013-07-31 08:02:00,
2013-07-31 04:04:00,65.4,62.7,30.05,SSE,149,4.0,5.0,91,0.00,,,0.00,Wunderground v.1.15,2013-07-31 08:04:00,
2013-07-31 04:08:00,65.5,62.8,30.05,SE,145,4.0,5.0,91,0.00,,,0.00,Wunderground v.1.15,2013-07-31 08:08:00,
2013-07-31 04:10:00,65.5,62.8,30.05,SE,135,4.0,4.0,91,0.00,,,0.00,Wunderground v.1.15,2013-07-31 08:10:00,
2013-07-31 04:12:00,65.5,62.8,30.05,SE,140,3.0,5.0,91,0.00,,,0.00,Wunderground v.1.15,2013-07-31 08:12:00,
2013-07-31 04:14:00,65.5,62.8,30.05,SSE,147,3.0,5.0,91,0.00,,,0.00,Wunderground v.1.15,2013-07-31 08:14:00,
2013-07-31 04:16:00,65.5,62.8,30.05,SE,133,3.0,5.0,91,0.00,,,0.00,Wunderground v.1.15,2013-07-31 08:16:00,
2013-07-31 04:18:00,65.5,62.8,30.05,SE,146,3.0,5.0,91,0.00,,,0.00,Wunderground v.1.15,2013-07-31 08:18:00,
2013-07-31 04:22:00,65.5,62.8,30.04,SE,139,3.0,8.0,91,0.00,,,0.00,Wunderground v.1.15,2013-07-31 08:22:00,
2013-07-31 04:24:00,65.5,62.8,30.04,SE,146,4.0,8.0,91,0.00,,,0.00,Wunderground v.1.15,2013-07-31 08:24:00,
2013-07-31 04:28:00,65.6,62.9,30.04,SE,145,4.0,8.0,91,0.00,,,0.00,Wunderground v.1.15,2013-07-31 08:28:00,
2013-07-31 04:30:00,65.6,62.9,30.04,SSE,147,4.0,4.0,91,0.00,,,0.00,Wunderground v.1.15,2013-07-31 08:30:00,
2013-07-31 04:32:00,65.6,62.9,30.04,SE,145,4.0,6.0,91,0.00,,,0.00,Wunderground v.1.15,2013-07-31 08:32:00,
2013-07-31 04:36:00,65.6,62.9,30.04,SE,139,5.0,6.0,91,0.00,,,0.00,Wunderground v.1.15,2013-07-31 08:36:00,
2013-07-31 04:38:00,65.6,62.9,30.04,SE,143,5.0,6.0,91,0.00,,,0.00,Wunderground v.1.15,2013-07-31 08:38:00,
2013-07-31 04:40:00,65.6,63.2,30.04,SE,142,5.0,5.0,92,0.00,,,0.00,Wunderground v.1.15,2013-07-31 08:40:00,
2013-07-31 04:42:00,65.6,63.2,30.04,SE,138,5.0,7.0,92,0.00,,,0.00,Wunderground v.1.15,2013-07-31 08:42:00,
2013-07-31 04:44:00,65.6,63.2,30.04,SE,138,5.0,7.0,92,0.00,,,0.00,Wunderground v.1.15,2013-07-31 08:44:00,
2013-07-31 04:46:00,65.6,63.2,30.03,SE,136,5.0,7.0,92,0.00,,,0.00,Wunderground v.1.15,2013-07-31 08:46:00,
2013-07-31 04:52:00,65.7,63.3,30.03,SE,138,5.0,6.0,92,0.00,,,0.00,Wunderground v.1.15,2013-07-31 08:52:00,
2013-07-31 04:58:00,65.7,63.3,30.03,SE,143,5.0,8.0,92,0.00,,,0.00,Wunderground v.1.15,2013-07-31 08:58:00,
2013-07-31 05:00:00,65.7,63.3,30.03,SE,139,5.0,5.0,92,0.00,,,0.00,Wunderground v.1.15,2013-07-31 09:00:00,
2013-07-31 05:02:00,65.7,63.3,30.03,SE,140,5.0,6.0,92,0.00,,,0.00,Wunderground v.1.15,2013-07-31 09:02:00,
2013-07-31 05:06:00,65.7,63.3,30.03,SE,138,5.0,6.0,92,0.00,,,0.00,Wunderground v.1.15,2013-07-31 09:06:00,
2013-07-31 05:08:00,65.7,63.0,30.03,SE,134,5.0,6.0,91,0.00,,,0.00,Wunderground v.1.15,2013-07-31 09:08:00,
2013-07-31 05:12:00,65.7,63.0,30.03,SE,137,4.0,6.0,91,0.00,,,0.00,Wunderground v.1.15,2013-07-31 09:12:00,
2013-07-31 05:14:00,65.7,63.3,30.03,SE,139,4.0,6.0,92,0.00,,,0.00,Wunderground v.1.15,2013-07-31 09:14:00,
2013-07-31 05:16:00,65.7,63.3,30.03,SE,142,4.0,6.0,92,0.00,,,0.00,Wunderground v.1.15,2013-07-31 09:16:00,
2013-07-31 05:18:00,65.7,63.3,30.03,SE,138,4.0,6.0,92,0.00,,,0.00,Wunderground v.1.15,2013-07-31 09:18:00,
2013-07-31 05:20:00,65.7,63.3,30.03,SE,137,4.0,4.0,92,0.00,,,0.00,Wunderground v.1.15,2013-07-31 09:20:00,
2013-07-31 05:22:00,65.7,63.3,30.03,SE,135,3.0,4.0,92,0.00,,,0.00,Wunderground v.1.15,2013-07-31 09:22:00,
2013-07-31 05:24:00,65.7,63.3,30.02,SE,146,3.0,4.0,92,0.00,,,0.00,Wunderground v.1.15,2013-07-31 09:24:00,
2013-07-31 05:26:00,65.7,63.3,30.02,SE,138,3.0,4.0,92,0.00,,,0.00,Wunderground v.1.15,2013-07-31 09:26:00,
2013-07-31 05:28:00,65.7,63.3,30.02,SE,131,3.0,5.0,92,0.00,,,0.00,Wunderground v.1.15,2013-07-31 09:28:00,
2013-07-31 05:30:00,65.7,63.3,30.03,SE,139,3.0,3.0,92,0.00,,,0.00,Wunderground v.1.15,2013-07-31 09:30:00,
2013-07-31 05:32:00,65.7,63.3,30.03,SE,135,3.0,3.0,92,0.00,,,0.00,Wunderground v.1.15,2013-07-31 09:32:00,
2013-07-31 05:34:00,65.7,63.3,30.02,SE,142,3.0,3.0,92,0.00,,,0.00,Wunderground v.1.15,2013-07-31 09:34:00,
2013-07-31 05:36:00,65.7,63.3,30.02,SE,141,3.0,5.0,92,0.00,,,0.00,Wunderground v.1.15,2013-07-31 09:36:00,
2013-07-31 05:42:00,65.7,63.3,30.03,SE,135,3.0,4.0,92,0.00,,,0.00,Wunderground v.1.15,2013-07-31 09:42:00,
2013-07-31 05:44:00,65.7,63.3,30.03,SE,135,4.0,4.0,92,0.00,,,0.00,Wunderground v.1.15,2013-07-31 09:44:00,
2013-07-31 05:46:00,65.7,63.3,30.03,SSE,147,3.0,4.0,92,0.00,,,0.00,Wunderground v.1.15,2013-07-31 09:46:00,
2013-07-31 05:50:00,65.6,63.2,30.03,SE,146,3.0,5.0,92,0.00,,,0.00,Wunderground v.1.15,2013-07-31 09:50:00,
2013-07-31 05:52:00,65.6,63.2,30.03,ESE,102,3.0,5.0,92,0.00,,,0.00,Wunderground v.1.15,2013-07-31 09:52:00,
2013-07-31 05:56:00,65.6,63.2,30.03,SE,146,3.0,6.0,92,0.00,,,0.00,Wunderground v.1.15,2013-07-31 09:56:00,
2013-07-31 05:58:00,65.6,63.2,30.03,SE,145,3.0,6.0,92,0.00,,,0.00,Wunderground v.1.15,2013-07-31 09:58:00,
2013-07-31 06:02:00,65.6,63.2,30.03,SE,142,3.0,5.0,92,0.00,,,0.00,Wunderground v.1.15,2013-07-31 10:02:00,
2013-07-31 06:06:00,65.6,63.2,30.03,East,99,3.0,5.0,92,0.00,,,0.00,Wunderground v.1.15,2013-07-31 10:06:00,
2013-07-31 06:08:00,65.6,63.2,30.03,SE,144,3.0,5.0,92,0.00,,,0.00,Wunderground v.1.15,2013-07-31 10:08:00,
2013-07-31 06:10:00,65.6,63.2,30.03,SE,145,3.0,4.0,92,0.00,,,0.00,Wunderground v.1.15,2013-07-31 10:10:00,
2013-07-31 06:12:00,65.6,63.2,30.03,SE,135,3.0,4.0,92,0.00,,,0.00,Wunderground v.1.15,2013-07-31 10:12:00,
2013-07-31 06:14:00,65.6,63.2,30.03,SE,137,3.0,4.0,92,0.00,,,0.00,Wunderground v.1.15,2013-07-31 10:14:00,
2013-07-31 06:16:00,65.6,63.2,30.03,SE,139,3.0,4.0,92,0.00,,,0.00,Wunderground v.1.15,2013-07-31 10:16:00,
2013-07-31 06:20:00,65.6,63.2,30.03,SE,140,2.0,2.0,92,0.00,,,0.00,Wunderground v.1.15,2013-07-31 10:20:00,
2013-07-31 06:22:00,65.6,63.2,30.03,SE,139,2.0,2.0,92,0.00,,,0.00,Wunderground v.1.15,2013-07-31 10:22:00,
2013-07-31 06:24:00,65.6,63.2,30.03,SE,139,2.0,2.0,92,0.00,,,0.00,Wunderground v.1.15,2013-07-31 10:24:00,
2013-07-31 06:26:00,65.6,63.2,30.03,SE,139,2.0,2.0,92,0.00,,,0.00,Wunderground v.1.15,2013-07-31 10:26:00,
2013-07-31 06:28:00,65.6,63.2,30.03,SE,139,1.0,3.0,92,0.00,,,0.00,Wunderground v.1.15,2013-07-31 10:28:00,
2013-07-31 06:30:00,65.6,63.2,30.03,SE,139,1.0,1.0,92,0.00,,,0.00,Wunderground v.1.15,2013-07-31 10:30:00,
2013-07-31 06:37:00,65.6,63.2,30.03,SE,131,2.0,8.0,92,0.00,,,0.00,Wunderground v.1.15,2013-07-31 10:37:00,
2013-07-31 06:38:00,65.6,63.2,30.03,SE,141,2.0,8.0,92,0.00,,,0.00,Wunderground v.1.15,2013-07-31 10:38:00,
2013-07-31 06:42:00,65.6,63.2,30.04,SE,139,2.0,8.0,92,0.00,,,0.00,Wunderground v.1.15,2013-07-31 10:42:00,
2013-07-31 06:44:00,65.5,63.1,30.04,SE,137,2.0,8.0,92,0.00,,,0.00,Wunderground v.1.15,2013-07-31 10:44:00,
2013-07-31 06:50:00,65.6,63.2,30.04,SE,137,1.0,8.0,92,0.00,,,0.00,Wunderground v.1.15,2013-07-31 10:50:00,
2013-07-31 06:52:00,65.5,63.1,30.04,SE,137,1.0,8.0,92,0.00,,,0.00,Wunderground v.1.15,2013-07-31 10:52:00,
2013-07-31 06:54:00,65.6,63.2,30.04,SE,137,1.0,8.0,92,0.00,,,0.00,Wunderground v.1.15,2013-07-31 10:54:00,
2013-07-31 06:58:00,65.5,63.1,30.04,SE,132,1.0,8.0,92,0.00,,,0.00,Wunderground v.1.15,2013-07-31 10:58:00,
2013-07-31 07:00:00,65.5,63.1,30.04,SE,132,1.0,1.0,92,0.00,,,0.00,Wunderground v.1.15,2013-07-31 11:00:00,
2013-07-31 07:02:00,65.5,63.1,30.04,SE,132,1.0,8.0,92,0.00,,,0.00,Wunderground v.1.15,2013-07-31 11:02:00,
2013-07-31 07:04:00,65.5,63.1,30.04,SE,135,1.0,8.0,92,0.00,,,0.00,Wunderground v.1.15,2013-07-31 11:04:00,
2013-07-31 07:06:00,65.5,63.1,30.04,SE,136,1.0,8.0,92,0.00,,,0.00,Wunderground v.1.15,2013-07-31 11:06:00,
2013-07-31 07:08:00,65.5,63.1,30.04,SE,126,1.0,8.0,92,0.00,,,0.00,Wunderground v.1.15,2013-07-31 11:08:00,
2013-07-31 07:10:00,65.5,63.1,30.04,SE,139,1.0,8.0,92,0.00,,,0.00,Wunderground v.1.15,2013-07-31 11:10:00,
2013-07-31 07:12:00,65.5,63.4,30.04,SE,139,1.0,8.0,93,0.00,,,0.00,Wunderground v.1.15,2013-07-31 11:12:00,
2013-07-31 07:16:00,65.5,63.4,30.04,SE,134,2.0,8.0,93,0.00,,,0.00,Wunderground v.1.15,2013-07-31 11:16:00,
2013-07-31 07:18:00,65.5,63.4,30.04,SE,141,2.0,8.0,93,0.00,,,0.00,Wunderground v.1.15,2013-07-31 11:18:00,
2013-07-31 07:22:00,65.5,63.4,30.03,SE,138,2.0,8.0,93,0.00,,,0.00,Wunderground v.1.15,2013-07-31 11:22:00,
2013-07-31 07:24:00,65.5,63.4,30.03,SE,130,2.0,8.0,93,0.00,,,0.00,Wunderground v.1.15,2013-07-31 11:24:00,
2013-07-31 07:28:00,65.5,63.4,30.04,SE,132,1.0,8.0,93,0.00,,,0.00,Wunderground v.1.15,2013-07-31 11:28:00,
2013-07-31 07:30:00,65.5,63.4,30.03,SE,133,2.0,2.0,93,0.00,,,0.00,Wunderground v.1.15,2013-07-31 11:30:00,
2013-07-31 07:32:00,65.6,63.5,30.03,SE,134,2.0,8.0,93,0.00,,,0.00,Wunderground v.1.15,2013-07-31 11:32:00,
2013-07-31 07:34:00,65.6,63.5,30.03,SE,134,2.0,8.0,93,0.00,,,0.00,Wunderground v.1.15,2013-07-31 11:34:00,
2013-07-31 07:36:00,65.6,63.5,30.03,SE,137,2.0,8.0,93,0.00,,,0.00,Wunderground v.1.15,2013-07-31 11:36:00,
2013-07-31 07:38:00,65.6,63.5,30.03,SE,143,2.0,8.0,93,0.00,,,0.00,Wunderground v.1.15,2013-07-31 11:38:00,
2013-07-31 07:40:00,65.6,63.5,30.03,SE,129,2.0,8.0,93,0.00,,,0.00,Wunderground v.1.15,2013-07-31 11:40:00,
2013-07-31 07:44:00,65.6,63.5,30.03,SE,138,3.0,8.0,93,0.00,,,0.00,Wunderground v.1.15,2013-07-31 11:44:00,
2013-07-31 07:46:00,65.7,63.6,30.03,SE,143,3.0,8.0,93,0.00,,,0.00,Wunderground v.1.15,2013-07-31 11:46:00,
2013-07-31 07:50:00,65.7,63.6,30.03,SE,143,3.0,8.0,93,0.00,,,0.00,Wunderground v.1.15,2013-07-31 11:50:00,
2013-07-31 07:54:00,65.8,63.7,30.03,SSE,154,2.0,8.0,93,0.00,,,0.00,Wunderground v.1.15,2013-07-31 11:54:00,
2013-07-31 07:56:00,65.8,63.7,30.03,SSE,154,2.0,8.0,93,0.00,,,0.00,Wunderground v.1.15,2013-07-31 11:56:00,
2013-07-31 07:58:00,65.8,63.7,30.03,SSE,154,1.0,8.0,93,0.00,,,0.00,Wunderground v.1.15,2013-07-31 11:58:00,
2013-07-31 08:02:00,65.9,63.8,30.03,SSE,151,1.0,8.0,93,0.00,,,0.00,Wunderground v.1.15,2013-07-31 12:02:00,
2013-07-31 08:04:00,65.9,63.8,30.03,SSE,151,1.0,8.0,93,0.00,,,0.00,Wunderground v.1.15,2013-07-31 12:04:00,
2013-07-31 08:06:00,66.0,63.9,30.03,SSE,151,1.0,8.0,93,0.00,,,0.00,Wunderground v.1.15,2013-07-31 12:06:00,
2013-07-31 08:10:00,66.1,64.0,30.03,SSE,150,2.0,2.0,93,0.00,,,0.00,Wunderground v.1.15,2013-07-31 12:10:00,
2013-07-31 08:12:00,66.1,64.0,30.03,SE,137,2.0,8.0,93,0.00,,,0.00,Wunderground v.1.15,2013-07-31 12:12:00,
2013-07-31 08:14:00,66.1,64.0,30.03,SE,140,2.0,8.0,93,0.00,,,0.00,Wunderground v.1.15,2013-07-31 12:14:00,
2013-07-31 08:17:00,66.2,64.1,30.03,SE,135,2.0,8.0,93,0.00,,,0.00,Wunderground v.1.15,2013-07-31 12:17:00,
2013-07-31 08:20:00,66.3,64.2,30.03,SE,143,3.0,3.0,93,0.00,,,0.00,Wunderground v.1.15,2013-07-31 12:20:00,
2013-07-31 08:22:00,66.3,63.9,30.03,SE,145,3.0,8.0,92,0.00,,,0.00,Wunderground v.1.15,2013-07-31 12:22:00,
2013-07-31 08:24:00,66.4,64.0,30.03,SE,144,3.0,8.0,92,0.00,,,0.00,Wunderground v.1.15,2013-07-31 12:24:00,
2013-07-31 08:26:00,66.4,64.0,30.03,SE,143,3.0,8.0,92,0.00,,,0.00,Wunderground v.1.15,2013-07-31 12:26:00,
2013-07-31 08:28:00,66.5,64.4,30.03,SE,129,3.0,8.0,93,0.00,,,0.00,Wunderground v.1.15,2013-07-31 12:28:00,
2013-07-31 08:34:00,66.7,64.6,30.03,SSE,147,3.0,8.0,93,0.00,,,0.00,Wunderground v.1.15,2013-07-31 12:34:00,
2013-07-31 08:36:00,66.8,64.4,30.03,ESE,120,3.0,8.0,92,0.00,,,0.00,Wunderground v.1.15,2013-07-31 12:36:00,
2013-07-31 08:38:00,66.8,64.4,30.03,SSE,154,3.0,8.0,92,0.00,,,0.00,Wunderground v.1.15,2013-07-31 12:38:00,
2013-07-31 08:40:00,66.9,64.5,30.03,SE,131,3.0,8.0,92,0.00,,,0.00,Wunderground v.1.15,2013-07-31 12:40:00,
2013-07-31 08:46:00,67.1,64.7,30.03,SSE,149,3.0,8.0,92,0.00,,,0.00,Wunderground v.1.15,2013-07-31 12:46:00,
2013-07-31 08:48:00,67.2,64.8,30.03,SE,137,3.0,8.0,92,0.00,,,0.00,Wunderground v.1.15,2013-07-31 12:48:00,
2013-07-31 08:50:00,67.2,64.8,30.03,SE,145,3.0,8.0,92,0.00,,,0.00,Wunderground v.1.15,2013-07-31 12:50:00,
2013-07-31 08:52:00,67.2,64.8,30.03,SE,143,3.0,8.0,92,0.00,,,0.00,Wunderground v.1.15,2013-07-31 12:52:00,
2013-07-31 08:54:00,67.2,64.8,30.03,SSE,150,3.0,8.0,92,0.00,,,0.00,Wunderground v.1.15,2013-07-31 12:54:00,
2013-07-31 08:58:00,67.2,64.5,30.03,SSE,147,4.0,8.0,91,0.00,,,0.00,Wunderground v.1.15,2013-07-31 12:58:00,
2013-07-31 09:00:00,67.2,64.8,30.03,SE,146,3.0,8.0,92,0.00,,,0.00,Wunderground v.1.15,2013-07-31 13:00:00,
2013-07-31 09:02:00,67.2,64.8,30.03,SE,142,3.0,8.0,92,0.00,,,0.00,Wunderground v.1.15,2013-07-31 13:02:00,
2013-07-31 09:04:00,67.2,64.8,30.03,SE,146,4.0,8.0,92,0.00,,,0.00,Wunderground v.1.15,2013-07-31 13:04:00,
2013-07-31 09:08:00,67.3,64.9,30.03,SE,135,3.0,8.0,92,0.00,,,0.00,Wunderground v.1.15,2013-07-31 13:08:00,
2013-07-31 09:10:00,67.3,64.9,30.03,SE,133,4.0,8.0,92,0.00,,,0.00,Wunderground v.1.15,2013-07-31 13:10:00,
2013-07-31 09:16:00,67.4,65.0,30.03,SE,131,4.0,8.0,92,0.00,,,0.00,Wunderground v.1.15,2013-07-31 13:16:00,
2013-07-31 09:18:00,67.5,64.8,30.03,SSE,147,3.0,8.0,91,0.00,,,0.00,Wunderground v.1.15,2013-07-31 13:18:00,
2013-07-31 09:22:00,67.5,64.8,30.03,SE,135,3.0,6.0,91,0.00,,,0.00,Wunderground v.1.15,2013-07-31 13:22:00,
2013-07-31 09:24:00,67.6,65.2,30.03,SE,143,3.0,8.0,92,0.00,,,0.00,Wunderground v.1.15,2013-07-31 13:24:00,
2013-07-31 09:26:00,67.7,65.3,30.03,SSE,161,3.0,8.0,92,0.00,,,0.00,Wunderground v.1.15,2013-07-31 13:26:00,
2013-07-31 09:30:00,67.8,65.1,30.03,SSE,158,3.0,8.0,91,0.00,,,0.00,Wunderground v.1.15,2013-07-31 13:30:00,
2013-07-31 09:34:00,67.7,65.0,30.03,SSE,149,4.0,8.0,91,0.00,,,0.00,Wunderground v.1.15,2013-07-31 13:34:00,
2013-07-31 09:36:00,67.8,65.1,30.03,SSE,166,4.0,8.0,91,0.00,,,0.00,Wunderground v.1.15,2013-07-31 13:36:00,
2013-07-31 09:38:00,67.9,65.2,30.03,South,187,3.0,8.0,91,0.00,,,0.00,Wunderground v.1.15,2013-07-31 13:38:00,
2013-07-31 09:42:00,67.9,65.2,30.03,South,171,4.0,8.0,91,0.00,,,0.00,Wunderground v.1.15,2013-07-31 13:42:00,
2013-07-31 09:44:00,67.9,65.2,30.03,SSE,154,4.0,8.0,91,0.00,,,0.00,Wunderground v.1.15,2013-07-31 13:44:00,
2013-07-31 09:46:00,67.9,65.2,30.03,SE,141,4.0,8.0,91,0.00,,,0.00,Wunderground v.1.15,2013-07-31 13:46:00,
2013-07-31 09:48:00,68.0,65.3,30.03,SSE,161,4.0,8.0,91,0.00,,,0.00,Wunderground v.1.15,2013-07-31 13:48:00,
2013-07-31 09:52:00,68.0,65.3,30.03,SE,135,3.0,5.0,91,0.00,,,0.00,Wunderground v.1.15,2013-07-31 13:52:00,
2013-07-31 09:54:00,67.9,65.2,30.03,SSW,192,4.0,8.0,91,0.00,,,0.00,Wunderground v.1.15,2013-07-31 13:54:00,
2013-07-31 09:58:00,68.0,65.3,30.03,SSE,160,3.0,8.0,91,0.00,,,0.00,Wunderground v.1.15,2013-07-31 13:58:00,
2013-07-31 10:00:00,68.0,65.3,30.03,SE,145,3.0,8.0,91,0.00,,,0.00,Wunderground v.1.15,2013-07-31 14:00:00,
2013-07-31 10:02:00,68.0,65.3,30.03,SE,143,3.0,8.0,91,0.00,,,0.00,Wunderground v.1.15,2013-07-31 14:02:00,
2013-07-31 10:04:00,68.1,65.4,30.03,SSE,162,3.0,8.0,91,0.00,,,0.00,Wunderground v.1.15,2013-07-31 14:04:00,
2013-07-31 10:06:00,68.2,65.5,30.03,South,174,3.0,8.0,91,0.00,,,0.00,Wunderground v.1.15,2013-07-31 14:06:00,
2013-07-31 10:10:00,68.3,65.6,30.03,South,177,3.0,3.0,91,0.00,,,0.00,Wunderground v.1.15,2013-07-31 14:10:00,
2013-07-31 10:12:00,68.4,65.7,30.03,South,187,3.0,4.0,91,0.00,,,0.00,Wunderground v.1.15,2013-07-31 14:12:00,
2013-07-31 10:14:00,68.5,65.8,30.02,SSE,159,3.0,8.0,91,0.00,,,0.00,Wunderground v.1.15,2013-07-31 14:14:00,
2013-07-31 10:18:00,68.7,65.6,30.02,SSE,154,3.0,8.0,90,0.00,,,0.00,Wunderground v.1.15,2013-07-31 14:18:00,
2013-07-31 10:20:00,68.8,65.7,30.02,South,174,3.0,3.0,90,0.00,,,0.00,Wunderground v.1.15,2013-07-31 14:20:00,
2013-07-31 10:22:00,68.9,65.8,30.02,South,180,3.0,8.0,90,0.00,,,0.00,Wunderground v.1.15,2013-07-31 14:22:00,
2013-07-31 10:24:00,69.0,65.9,30.02,South,170,3.0,8.0,90,0.00,,,0.00,Wunderground v.1.15,2013-07-31 14:24:00,
2013-07-31 10:26:00,69.1,66.0,30.02,SSW,194,3.0,8.0,90,0.00,,,0.00,Wunderground v.1.15,2013-07-31 14:26:00,
2013-07-31 10:30:00,69.4,66.3,30.02,South,170,3.0,8.0,90,0.00,,,0.00,Wunderground v.1.15,2013-07-31 14:30:00,
2013-07-31 10:32:00,69.5,66.1,30.02,South,180,3.0,8.0,89,0.00,,,0.00,Wunderground v.1.15,2013-07-31 14:32:00,
2013-07-31 10:38:00,69.7,66.3,30.02,SE,145,3.0,8.0,89,0.00,,,0.00,Wunderground v.1.15,2013-07-31 14:38:00,
2013-07-31 10:40:00,69.9,66.5,30.02,SW,214,4.0,4.0,89,0.00,,,0.00,Wunderground v.1.15,2013-07-31 14:40:00,
2013-07-31 10:42:00,70.0,66.6,30.02,SW,214,4.0,8.0,89,0.00,,,0.00,Wunderground v.1.15,2013-07-31 14:42:00,
2013-07-31 10:44:00,70.1,66.4,30.02,SSW,201,4.0,8.0,88,0.00,,,0.00,Wunderground v.1.15,2013-07-31 14:44:00,
2013-07-31 10:46:00,70.1,66.4,30.02,SW,217,4.0,8.0,88,0.00,,,0.00,Wunderground v.1.15,2013-07-31 14:46:00,
2013-07-31 10:48:00,70.1,66.4,30.02,SSE,168,4.0,8.0,88,0.00,,,0.00,Wunderground v.1.15,2013-07-31 14:48:00,
2013-07-31 10:52:00,70.2,66.5,30.02,SSE,164,4.0,8.0,88,0.00,,,0.00,Wunderground v.1.15,2013-07-31 14:52:00,
2013-07-31 10:54:00,70.3,66.6,30.02,South,172,3.0,8.0,88,0.00,,,0.00,Wunderground v.1.15,2013-07-31 14:54:00,
2013-07-31 10:56:00,70.4,66.7,30.02,SSW,195,3.0,8.0,88,0.00,,,0.00,Wunderground v.1.15,2013-07-31 14:56:00,
2013-07-31 10:58:00,70.4,66.7,30.02,SSE,165,3.0,8.0,88,0.00,,,0.00,Wunderground v.1.15,2013-07-31 14:58:00,
2013-07-31 11:04:00,70.6,66.9,30.02,SSW,203,3.0,8.0,88,0.00,,,0.00,Wunderground v.1.15,2013-07-31 15:04:00,
2013-07-31 11:06:00,70.5,66.4,30.02,South,186,3.0,8.0,87,0.00,,,0.00,Wunderground v.1.15,2013-07-31 15:06:00,
2013-07-31 11:08:00,70.6,66.9,30.02,South,181,3.0,8.0,88,0.00,,,0.00,Wunderground v.1.15,2013-07-31 15:08:00,
2013-07-31 11:10:00,70.6,66.9,30.02,South,184,3.0,3.0,88,0.00,,,0.00,Wunderground v.1.15,2013-07-31 15:10:00,
2013-07-31 11:12:00,70.7,66.6,30.02,South,184,3.0,8.0,87,0.00,,,0.00,Wunderground v.1.15,2013-07-31 15:12:00,
2013-07-31 11:18:00,70.9,67.2,30.02,WSW,242,1.0,8.0,88,0.00,,,0.00,Wunderground v.1.15,2013-07-31 15:18:00,
2013-07-31 11:20:00,71.0,66.9,30.02,SW,215,1.0,8.0,87,0.00,,,0.00,Wunderground v.1.15,2013-07-31 15:20:00,
2013-07-31 11:22:00,71.0,66.9,30.02,SW,231,2.0,8.0,87,0.00,,,0.00,Wunderground v.1.15,2013-07-31 15:22:00,
2013-07-31 11:24:00,70.9,66.8,30.02,SSW,210,2.0,8.0,87,0.00,,,0.00,Wunderground v.1.15,2013-07-31 15:24:00,
2013-07-31 11:28:00,70.9,66.8,30.02,WNW,287,2.0,8.0,87,0.00,,,0.00,Wunderground v.1.15,2013-07-31 15:28:00,
2013-07-31 11:30:00,70.9,66.8,30.02,SW,216,2.0,8.0,87,0.00,,,0.00,Wunderground v.1.15,2013-07-31 15:30:00,
2013-07-31 11:32:00,70.8,66.7,30.02,SW,224,2.0,8.0,87,0.00,,,0.00,Wunderground v.1.15,2013-07-31 15:32:00,
2013-07-31 11:34:00,70.9,66.8,30.02,WSW,237,2.0,8.0,87,0.00,,,0.00,Wunderground v.1.15,2013-07-31 15:34:00,
2013-07-31 11:36:00,70.8,66.7,30.01,SW,220,2.0,8.0,87,0.00,,,0.00,Wunderground v.1.15,2013-07-31 15:36:00,
2013-07-31 11:38:00,70.9,66.8,30.01,SW,220,2.0,8.0,87,0.00,,,0.00,Wunderground v.1.15,2013-07-31 15:38:00,
2013-07-31 11:42:00,71.0,66.9,30.01,SW,220,1.0,8.0,87,0.00,,,0.00,Wunderground v.1.15,2013-07-31 15:42:00,
2013-07-31 11:44:00,71.1,67.0,30.01,WSW,242,1.0,8.0,87,0.00,,,0.00,Wunderground v.1.15,2013-07-31 15:44:00,
2013-07-31 11:46:00,71.2,67.1,30.01,WNW,283,1.0,8.0,87,0.00,,,0.00,Wunderground v.1.15,2013-07-31 15:46:00,
2013-07-31 11:48:00,71.3,67.2,30.01,SW,220,1.0,8.0,87,0.00,,,0.00,Wunderground v.1.15,2013-07-31 15:48:00,
2013-07-31 11:50:00,71.5,67.4,30.01,South,187,1.0,1.0,87,0.00,,,0.00,Wunderground v.1.15,2013-07-31 15:50:00,
2013-07-31 11:54:00,71.9,67.5,30.01,SSW,193,0.0,8.0,86,0.00,,,0.00,Wunderground v.1.15,2013-07-31 15:54:00,
2013-07-31 11:56:00,72.1,67.7,30.01,SSW,194,0.0,8.0,86,0.00,,,0.00,Wunderground v.1.15,2013-07-31 15:56:00,
2013-07-31 11:58:00,72.3,67.9,30.01,SSW,194,0.0,8.0,86,0.00,,,0.00,Wunderground v.1.15,2013-07-31 15:58:00,
2013-07-31 12:00:00,72.5,68.1,30.01,SSW,194,0.0,8.0,86,0.00,,,0.00,Wunderground v.1.15,2013-07-31 16:00:00,
2013-07-31 12:04:00,72.6,67.8,30.02,South,189,0.0,8.0,85,0.00,,,0.00,Wunderground v.1.15,2013-07-31 16:04:00,
2013-07-31 12:06:00,72.7,67.6,30.02,South,189,0.0,8.0,84,0.00,,,0.00,Wunderground v.1.15,2013-07-31 16:06:00,
2013-07-31 12:10:00,72.4,67.3,30.02,WSW,237,1.0,1.0,84,0.00,,,0.00,Wunderground v.1.15,2013-07-31 16:10:00,
2013-07-31 12:12:00,72.3,67.5,30.01,WSW,237,0.0,8.0,85,0.00,,,0.00,Wunderground v.1.15,2013-07-31 16:12:00,
2013-07-31 12:14:00,72.1,67.3,30.01,WSW,237,1.0,8.0,85,0.00,,,0.00,Wunderground v.1.15,2013-07-31 16:14:00,
2013-07-31 12:18:00,72.0,67.2,30.01,WSW,237,1.0,8.0,85,0.00,,,0.00,Wunderground v.1.15,2013-07-31 16:18:00,
2013-07-31 12:20:00,72.0,67.6,30.01,WSW,237,0.0,8.0,86,0.00,,,0.00,Wunderground v.1.15,2013-07-31 16:20:00,
2013-07-31 12:24:00,72.2,67.8,30.01,WSW,245,0.0,8.0,86,0.00,,,0.00,Wunderground v.1.15,2013-07-31 16:24:00,
2013-07-31 12:26:00,72.4,67.6,30.01,WSW,249,0.0,8.0,85,0.00,,,0.00,Wunderground v.1.15,2013-07-31 16:26:00,
2013-07-31 12:28:00,72.4,67.6,30.01,NE,51,0.0,8.0,85,0.00,,,0.00,Wunderground v.1.15,2013-07-31 16:28:00,
2013-07-31 12:30:00,72.3,67.5,30.01,NE,52,1.0,8.0,85,0.00,,,0.00,Wunderground v.1.15,2013-07-31 16:30:00,
2013-07-31 12:36:00,72.1,67.7,30.01,ENE,74,2.0,8.0,86,0.00,,,0.00,Wunderground v.1.15,2013-07-31 16:36:00,
2013-07-31 12:38:00,72.0,67.6,30.01,ENE,75,2.0,8.0,86,0.00,,,0.00,Wunderground v.1.15,2013-07-31 16:38:00,
2013-07-31 12:40:00,72.0,67.6,30.01,ENE,75,1.0,8.0,86,0.00,,,0.00,Wunderground v.1.15,2013-07-31 16:40:00,
2013-07-31 12:42:00,72.0,67.6,30.01,ENE,75,1.0,8.0,86,0.00,,,0.00,Wunderground v.1.15,2013-07-31 16:42:00,
2013-07-31 12:44:00,72.0,67.6,30.01,ENE,75,1.0,8.0,86,0.00,,,0.00,Wunderground v.1.15,2013-07-31 16:44:00,
2013-07-31 12:48:00,72.1,67.7,30.01,ENE,75,1.0,8.0,86,0.00,,,0.00,Wunderground v.1.15,2013-07-31 16:48:00,
2013-07-31 12:50:00,72.2,67.8,30.01,ENE,75,0.0,8.0,86,0.00,,,0.00,Wunderground v.1.15,2013-07-31 16:50:00,
2013-07-31 12:56:00,72.2,67.8,30.01,ENE,75,0.0,8.0,86,0.00,,,0.00,Wunderground v.1.15,2013-07-31 16:56:00,
2013-07-31 12:58:00,72.2,67.8,30.01,ENE,75,0.0,8.0,86,0.00,,,0.00,Wunderground v.1.15,2013-07-31 16:58:00,
2013-07-31 13:02:00,72.1,67.7,30.01,East,93,0.0,8.0,86,0.00,,,0.00,Wunderground v.1.15,2013-07-31 17:02:00,
2013-07-31 13:04:00,71.9,67.5,30.01,East,93,1.0,8.0,86,0.00,,,0.00,Wunderground v.1.15,2013-07-31 17:04:00,
2013-07-31 13:08:00,71.7,67.6,30.01,ESE,107,1.0,8.0,87,0.00,,,0.00,Wunderground v.1.15,2013-07-31 17:08:00,
2013-07-31 13:10:00,71.6,67.5,30.01,ESE,109,1.0,1.0,87,0.00,,,0.00,Wunderground v.1.15,2013-07-31 17:10:00,
2013-07-31 13:12:00,71.5,67.4,30.01,ESE,109,1.0,8.0,87,0.00,,,0.00,Wunderground v.1.15,2013-07-31 17:12:00,
2013-07-31 13:14:00,71.5,67.4,30.01,ESE,109,1.0,8.0,87,0.00,,,0.00,Wunderground v.1.15,2013-07-31 17:14:00,
2013-07-31 13:18:00,71.4,67.7,30.01,ESE,109,1.0,8.0,88,0.00,,,0.00,Wunderground v.1.15,2013-07-31 17:18:00,
2013-07-31 13:20:00,71.3,67.6,30.01,ESE,110,1.0,1.0,88,0.00,,,0.00,Wunderground v.1.15,2013-07-31 17:20:00,
2013-07-31 13:22:00,71.3,67.6,30.01,SSW,199,1.0,8.0,88,0.00,,,0.00,Wunderground v.1.15,2013-07-31 17:22:00,
2013-07-31 13:24:00,71.2,67.5,30.01,WNW,303,1.0,8.0,88,0.00,,,0.00,Wunderground v.1.15,2013-07-31 17:24:00,
2013-07-31 13:28:00,70.9,67.2,30.01,NW,309,2.0,8.0,88,0.00,,,0.00,Wunderground v.1.15,2013-07-31 17:28:00,
2013-07-31 13:30:00,70.8,67.4,30.01,NW,309,2.0,2.0,89,0.00,,,0.00,Wunderground v.1.15,2013-07-31 17:30:00,
2013-07-31 13:34:00,71.0,67.9,30.01,NW,309,1.0,8.0,90,0.00,,,0.00,Wunderground v.1.15,2013-07-31 17:34:00,
2013-07-31 13:36:00,71.2,68.1,30.00,NW,309,1.0,8.0,90,0.00,,,0.00,Wunderground v.1.15,2013-07-31 17:36:00,
2013-07-31 13:42:00,71.8,68.4,30.00,NW,309,0.0,8.0,89,0.00,,,0.00,Wunderground v.1.15,2013-07-31 17:42:00,
2013-07-31 13:44:00,71.9,68.5,30.01,NW,309,0.0,8.0,89,0.00,,,0.00,Wunderground v.1.15,2013-07-31 17:44:00,
2013-07-31 13:48:00,72.2,68.8,30.00,NW,309,0.0,8.0,89,0.00,,,0.00,Wunderground v.1.15,2013-07-31 17:48:00,
2013-07-31 13:50:00,72.3,68.5,30.00,NW,309,0.0,8.0,88,0.00,,,0.00,Wunderground v.1.15,2013-07-31 17:50:00,
2013-07-31 13:52:00,72.3,68.5,30.00,NW,309,0.0,8.0,88,0.00,,,0.00,Wunderground v.1.15,2013-07-31 17:52:00,
2013-07-31 13:54:00,72.3,68.5,30.00,NW,309,0.0,8.0,88,0.00,,,0.00,Wunderground v.1.15,2013-07-31 17:54:00,
2013-07-31 13:56:00,72.2,68.4,30.00,NW,309,0.0,8.0,88,0.00,,,0.00,Wunderground v.1.15,2013-07-31 17:56:00,
2013-07-31 13:58:00,72.1,68.3,30.00,SSW,203,0.0,8.0,88,0.00,,,0.00,Wunderground v.1.15,2013-07-31 17:58:00,
2013-07-31 14:00:00,72.0,68.2,30.00,SW,220,0.0,8.0,88,0.00,,,0.00,Wunderground v.1.15,2013-07-31 18:00:00,
2013-07-31 14:06:00,71.9,68.8,30.00,SW,222,1.0,8.0,90,0.00,,,0.00,Wunderground v.1.15,2013-07-31 18:06:00,
2013-07-31 14:08:00,71.9,68.5,30.00,SW,222,1.0,8.0,89,0.00,,,0.00,Wunderground v.1.15,2013-07-31 18:08:00,
2013-07-31 14:10:00,72.0,68.9,30.00,SW,222,1.0,1.0,90,0.00,,,0.00,Wunderground v.1.15,2013-07-31 18:10:00,
2013-07-31 14:12:00,72.2,68.8,30.00,SW,222,1.0,8.0,89,0.00,,,0.00,Wunderground v.1.15,2013-07-31 18:12:00,
2013-07-31 14:14:00,72.3,68.9,30.00,SW,222,0.0,8.0,89,0.00,,,0.00,Wunderground v.1.15,2013-07-31 18:14:00,
2013-07-31 14:20:00,72.0,68.2,30.00,SSW,199,2.0,8.0,88,0.00,,,0.00,Wunderground v.1.15,2013-07-31 18:20:00,
2013-07-31 14:22:00,71.7,68.0,30.00,SSW,199,3.0,8.0,88,0.00,,,0.00,Wunderground v.1.15,2013-07-31 18:22:00,
2013-07-31 14:24:00,71.6,67.9,30.00,SSW,203,4.0,8.0,88,0.00,,,0.00,Wunderground v.1.15,2013-07-31 18:24:00,
2013-07-31 14:26:00,71.4,67.7,30.00,South,185,5.0,8.0,88,0.00,,,0.00,Wunderground v.1.15,2013-07-31 18:26:00,
2013-07-31 14:28:00,71.4,68.0,30.00,South,184,5.0,8.0,89,0.00,,,0.00,Wunderground v.1.15,2013-07-31 18:28:00,
2013-07-31 14:30:00,71.4,68.0,30.00,South,188,4.0,8.0,89,0.00,,,0.00,Wunderground v.1.15,2013-07-31 18:30:00,
2013-07-31 14:34:00,71.4,68.0,30.00,South,188,4.0,8.0,89,0.00,,,0.00,Wunderground v.1.15,2013-07-31 18:34:00,
2013-07-31 14:36:00,71.4,68.0,30.00,SSW,199,4.0,8.0,89,0.00,,,0.00,Wunderground v.1.15,2013-07-31 18:36:00,
2013-07-31 14:38:00,71.4,68.3,30.00,SSW,199,4.0,8.0,90,0.00,,,0.00,Wunderground v.1.15,2013-07-31 18:38:00,
2013-07-31 14:40:00,71.5,68.4,30.00,SSW,201,3.0,3.0,90,0.00,,,0.00,Wunderground v.1.15,2013-07-31 18:40:00,
2013-07-31 14:46:00,71.8,68.4,30.00,SW,214,3.0,8.0,89,0.00,,,0.00,Wunderground v.1.15,2013-07-31 18:46:00,
2013-07-31 14:48:00,71.9,68.2,29.99,SSW,194,3.0,8.0,88,0.00,,,0.00,Wunderground v.1.15,2013-07-31 18:48:00,
2013-07-31 14:52:00,72.2,68.4,29.99,SW,228,3.0,8.0,88,0.00,,,0.00,Wunderground v.1.15,2013-07-31 18:52:00,
2013-07-31 14:56:00,72.5,68.7,29.99,WNW,285,2.0,8.0,88,0.00,,,0.00,Wunderground v.1.15,2013-07-31 18:56:00,
2013-07-31 14:58:00,72.5,68.7,29.99,SW,227,2.0,8.0,88,0.00,,,0.00,Wunderground v.1.15,2013-07-31 18:58:00,
2013-07-31 15:02:00,72.5,68.7,29.99,WNW,285,3.0,8.0,88,0.00,,,0.00,Wunderground v.1.15,2013-07-31 19:02:00,
2013-07-31 15:04:00,72.5,68.7,29.99,SW,228,3.0,8.0,88,0.00,,,0.00,Wunderground v.1.15,2013-07-31 19:04:00,
2013-07-31 15:10:00,72.4,68.3,29.99,SSW,212,3.0,3.0,87,0.00,,,0.00,Wunderground v.1.15,2013-07-31 19:10:00,
2013-07-31 15:14:00,72.7,68.6,29.99,SW,220,3.0,8.0,87,0.00,,,0.00,Wunderground v.1.15,2013-07-31 19:14:00,
2013-07-31 15:18:00,72.9,68.8,29.99,SW,227,3.0,8.0,87,0.00,,,0.00,Wunderground v.1.15,2013-07-31 19:18:00,
2013-07-31 15:24:00,73.1,68.7,29.98,WNW,287,3.0,8.0,86,0.00,,,0.00,Wunderground v.1.15,2013-07-31 19:24:00,
2013-07-31 15:26:00,73.1,68.7,29.98,West,270,3.0,8.0,86,0.00,,,0.00,Wunderground v.1.15,2013-07-31 19:26:00,
2013-07-31 15:28:00,73.1,68.7,29.98,NW,308,3.0,8.0,86,0.00,,,0.00,Wunderground v.1.15,2013-07-31 19:28:00,
2013-07-31 15:30:00,73.0,68.6,29.98,NW,308,3.0,8.0,86,0.00,,,0.00,Wunderground v.1.15,2013-07-31 19:30:00,
2013-07-31 15:34:00,73.1,69.0,29.99,WNW,289,3.0,8.0,87,0.00,,,0.00,Wunderground v.1.15,2013-07-31 19:34:00,
2013-07-31 15:36:00,73.1,68.7,29.98,WNW,289,3.0,8.0,86,0.00,,,0.00,Wunderground v.1.15,2013-07-31 19:36:00,
2013-07-31 15:40:00,73.3,68.9,29.98,West,280,2.0,8.0,86,0.00,,,0.00,Wunderground v.1.15,2013-07-31 19:40:00,
2013-07-31 15:42:00,73.2,68.8,29.98,West,276,2.0,8.0,86,0.00,,,0.00,Wunderground v.1.15,2013-07-31 19:42:00,
2013-07-31 15:44:00,73.3,69.2,29.98,SW,227,2.0,8.0,87,0.00,,,0.00,Wunderground v.1.15,2013-07-31 19:44:00,
2013-07-31 15:47:00,73.3,68.9,29.98,West,268,2.0,8.0,86,0.00,,,0.00,Wunderground v.1.15,2013-07-31 19:47:00,
2013-07-31 15:48:00,73.2,68.8,29.98,SW,226,2.0,8.0,86,0.00,,,0.00,Wunderground v.1.15,2013-07-31 19:48:00,
2013-07-31 15:52:00,73.3,68.9,29.98,WSW,249,2.0,8.0,86,0.00,,,0.00,Wunderground v.1.15,2013-07-31 19:52:00,
2013-07-31 15:56:00,73.4,69.0,29.98,WSW,254,2.0,8.0,86,0.00,,,0.00,Wunderground v.1.15,2013-07-31 19:56:00,
2013-07-31 15:58:00,73.4,69.0,29.98,West,264,2.0,8.0,86,0.00,,,0.00,Wunderground v.1.15,2013-07-31 19:58:00,
2013-07-31 16:00:00,73.3,68.5,29.98,WNW,290,2.0,2.0,85,0.00,,,0.00,Wunderground v.1.15,2013-07-31 20:00:00,
2013-07-31 16:02:00,73.4,68.6,29.98,WNW,288,2.0,3.0,85,0.00,,,0.00,Wunderground v.1.15,2013-07-31 20:02:00,
2013-07-31 16:04:00,73.3,68.5,29.98,SW,217,3.0,4.0,85,0.00,,,0.00,Wunderground v.1.15,2013-07-31 20:04:00,
2013-07-31 16:06:00,73.3,68.5,29.98,SSW,206,3.0,5.0,85,0.00,,,0.00,Wunderground v.1.15,2013-07-31 20:06:00,
2013-07-31 16:08:00,73.3,68.9,29.98,WNW,299,3.0,8.0,86,0.00,,,0.00,Wunderground v.1.15,2013-07-31 20:08:00,
2013-07-31 16:10:00,73.2,68.8,29.98,West,270,3.0,3.0,86,0.00,,,0.00,Wunderground v.1.15,2013-07-31 20:10:00,
2013-07-31 16:12:00,73.1,68.7,29.98,WNW,283,3.0,8.0,86,0.00,,,0.00,Wunderground v.1.15,2013-07-31 20:12:00,
2013-07-31 16:14:00,73.1,68.7,29.98,WNW,282,3.0,8.0,86,0.00,,,0.00,Wunderground v.1.15,2013-07-31 20:14:00,
2013-07-31 16:16:00,73.2,69.1,29.97,SW,216,3.0,8.0,87,0.00,,,0.00,Wunderground v.1.15,2013-07-31 20:16:00,
2013-07-31 16:20:00,73.3,68.9,29.97,West,274,2.0,2.0,86,0.00,,,0.00,Wunderground v.1.15,2013-07-31 20:20:00,
2013-07-31 16:22:00,73.5,69.1,29.98,West,271,2.0,3.0,86,0.00,,,0.00,Wunderground v.1.15,2013-07-31 20:22:00,
2013-07-31 16:24:00,73.7,68.9,29.97,WNW,286,2.0,4.0,85,0.00,,,0.00,Wunderground v.1.15,2013-07-31 20:24:00,
2013-07-31 16:26:00,73.9,69.4,29.98,NW,305,2.0,8.0,86,0.00,,,0.00,Wunderground v.1.15,2013-07-31 20:26:00,
2013-07-31 16:28:00,74.0,69.2,29.98,SW,228,2.0,8.0,85,0.00,,,0.00,Wunderground v.1.15,2013-07-31 20:28:00,
2013-07-31 16:30:00,74.0,69.2,29.98,West,275,2.0,2.0,85,0.00,,,0.00,Wunderground v.1.15,2013-07-31 20:30:00,
2013-07-31 16:32:00,74.2,69.4,29.97,West,272,2.0,8.0,85,0.00,,,0.00,Wunderground v.1.15,2013-07-31 20:32:00,
2013-07-31 16:38:00,74.8,69.6,29.97,SSW,202,2.0,8.0,84,0.00,,,0.00,Wunderground v.1.15,2013-07-31 20:38:00,
2013-07-31 16:42:00,74.9,69.7,29.97,WNW,284,2.0,8.0,84,0.00,,,0.00,Wunderground v.1.15,2013-07-31 20:42:00,
2013-07-31 16:48:00,74.4,69.2,29.97,WSW,238,4.0,8.0,84,0.00,,,0.00,Wunderground v.1.15,2013-07-31 20:48:00,
2013-07-31 16:50:00,74.3,69.1,29.97,SW,231,5.0,8.0,84,0.00,,,0.00,Wunderground v.1.15,2013-07-31 20:50:00,
2013-07-31 16:52:00,74.2,69.1,29.97,WSW,239,5.0,8.0,84,0.00,,,0.00,Wunderground v.1.15,2013-07-31 20:52:00,
2013-07-31 16:54:00,74.2,69.1,29.97,SW,232,5.0,8.0,84,0.00,,,0.00,Wunderground v.1.15,2013-07-31 20:54:00,
2013-07-31 16:56:00,74.3,69.5,29.97,SW,234,5.0,8.0,85,0.00,,,0.00,Wunderground v.1.15,2013-07-31 20:56:00,
2013-07-31 16:58:00,74.4,69.2,29.97,West,271,4.0,8.0,84,0.00,,,0.00,Wunderground v.1.15,2013-07-31 20:58:00,
2013-07-31 17:00:00,74.5,69.0,29.97,West,271,3.0,3.0,83,0.00,,,0.00,Wunderground v.1.15,2013-07-31 21:00:00,
2013-07-31 17:04:00,75.4,70.2,29.96,West,271,1.0,8.0,84,0.00,,,0.00,Wunderground v.1.15,2013-07-31 21:04:00,
2013-07-31 17:06:00,75.8,69.9,29.96,NW,315,1.0,8.0,82,0.00,,,0.00,Wunderground v.1.15,2013-07-31 21:06:00,
2013-07-31 17:10:00,76.0,69.7,29.97,SSW,195,1.0,8.0,81,0.00,,,0.00,Wunderground v.1.15,2013-07-31 21:10:00,
2013-07-31 17:14:00,75.9,69.6,29.96,ESE,122,1.0,8.0,81,0.00,,,0.00,Wunderground v.1.15,2013-07-31 21:14:00,
2013-07-31 17:16:00,76.0,69.7,29.96,WSW,238,1.0,8.0,81,0.00,,,0.00,Wunderground v.1.15,2013-07-31 21:16:00,
2013-07-31 17:22:00,75.6,69.7,29.96,SW,220,1.0,3.0,82,0.00,,,0.00,Wunderground v.1.15,2013-07-31 21:22:00,
2013-07-31 17:24:00,75.4,69.5,29.96,SSW,197,2.0,4.0,82,0.00,,,0.00,Wunderground v.1.15,2013-07-31 21:24:00,
2013-07-31 17:28:00,75.1,69.2,29.96,South,177,2.0,8.0,82,0.00,,,0.00,Wunderground v.1.15,2013-07-31 21:28:00,
2013-07-31 17:30:00,75.1,69.2,29.96,South,177,2.0,2.0,82,0.00,,,0.00,Wunderground v.1.15,2013-07-31 21:30:00,
2013-07-31 17:32:00,75.2,69.3,29.96,SSW,193,2.0,6.0,82,0.00,,,0.00,Wunderground v.1.15,2013-07-31 21:32:00,
2013-07-31 17:34:00,75.1,68.9,29.96,South,180,3.0,8.0,81,0.00,,,0.00,Wunderground v.1.15,2013-07-31 21:34:00,
2013-07-31 17:36:00,75.1,68.9,29.96,South,190,3.0,8.0,81,0.00,,,0.00,Wunderground v.1.15,2013-07-31 21:36:00,
2013-07-31 17:40:00,75.4,69.5,29.96,SSW,195,3.0,3.0,82,0.00,,,0.00,Wunderground v.1.15,2013-07-31 21:40:00,
2013-07-31 17:44:00,75.7,69.8,29.96,SSW,195,2.0,8.0,82,0.00,,,0.00,Wunderground v.1.15,2013-07-31 21:44:00,
2013-07-31 17:46:00,75.9,69.6,29.96,South,170,2.0,8.0,81,0.00,,,0.00,Wunderground v.1.15,2013-07-31 21:46:00,
2013-07-31 17:50:00,76.1,69.8,29.95,SSE,156,1.0,1.0,81,0.00,,,0.00,Wunderground v.1.15,2013-07-31 21:50:00,
2013-07-31 17:52:00,76.2,69.6,29.95,East,86,1.0,8.0,80,0.00,,,0.00,Wunderground v.1.15,2013-07-31 21:52:00,
2013-07-31 17:54:00,76.5,69.9,29.95,East,86,1.0,8.0,80,0.00,,,0.00,Wunderground v.1.15,2013-07-31 21:54:00,
2013-07-31 18:00:00,76.9,69.9,29.95,North,354,0.0,8.0,79,0.00,,,0.00,Wunderground v.1.15,2013-07-31 22:00:00,
2013-07-31 18:02:00,76.9,69.5,29.95,North,10,0.0,8.0,78,0.00,,,0.00,Wunderground v.1.15,2013-07-31 22:02:00,
2013-07-31 18:04:00,76.8,69.8,29.95,ESE,112,0.0,8.0,79,0.00,,,0.00,Wunderground v.1.15,2013-07-31 22:04:00,
2013-07-31 18:08:00,76.5,69.5,29.95,SE,127,1.0,8.0,79,0.00,,,0.00,Wunderground v.1.15,2013-07-31 22:08:00,
2013-07-31 18:10:00,76.3,69.7,29.95,SE,127,1.0,8.0,80,0.00,,,0.00,Wunderground v.1.15,2013-07-31 22:10:00,
2013-07-31 18:12:00,76.1,69.8,29.95,SE,127,1.0,8.0,81,0.00,,,0.00,Wunderground v.1.15,2013-07-31 22:12:00,
2013-07-31 18:16:00,75.9,70.0,29.95,SE,135,1.0,8.0,82,0.00,,,0.00,Wunderground v.1.15,2013-07-31 22:16:00,
2013-07-31 18:18:00,75.8,69.6,29.95,WSW,246,1.0,8.0,81,0.00,,,0.00,Wunderground v.1.15,2013-07-31 22:18:00,
2013-07-31 18:20:00,75.7,69.5,29.95,WSW,239,1.0,8.0,81,0.00,,,0.00,Wunderground v.1.15,2013-07-31 22:20:00,
2013-07-31 18:22:00,75.6,69.7,29.95,West,278,1.0,8.0,82,0.00,,,0.00,Wunderground v.1.15,2013-07-31 22:22:00,
2013-07-31 18:26:00,75.5,69.6,29.95,WNW,286,2.0,8.0,82,0.00,,,0.00,Wunderground v.1.15,2013-07-31 22:26:00,
2013-07-31 18:28:00,75.5,69.3,29.95,WSW,239,2.0,8.0,81,0.00,,,0.00,Wunderground v.1.15,2013-07-31 22:28:00,
2013-07-31 18:30:00,75.5,69.6,29.95,WSW,239,1.0,8.0,82,0.00,,,0.00,Wunderground v.1.15,2013-07-31 22:30:00,
2013-07-31 18:32:00,75.4,69.5,29.95,WSW,239,2.0,8.0,82,0.00,,,0.00,Wunderground v.1.15,2013-07-31 22:32:00,
2013-07-31 18:34:00,75.4,69.5,29.94,WSW,239,1.0,8.0,82,0.00,,,0.00,Wunderground v.1.15,2013-07-31 22:34:00,
2013-07-31 18:36:00,75.4,69.5,29.95,WSW,239,1.0,8.0,82,0.00,,,0.00,Wunderground v.1.15,2013-07-31 22:36:00,
2013-07-31 18:40:00,75.6,69.7,29.94,WSW,239,1.0,8.0,82,0.00,,,0.00,Wunderground v.1.15,2013-07-31 22:40:00,
2013-07-31 18:42:00,75.7,69.8,29.94,WSW,239,1.0,8.0,82,0.00,,,0.00,Wunderground v.1.15,2013-07-31 22:42:00,
2013-07-31 18:44:00,75.8,69.6,29.94,WSW,239,1.0,8.0,81,0.00,,,0.00,Wunderground v.1.15,2013-07-31 22:44:00,
2013-07-31 18:46:00,76.1,70.2,29.94,WSW,239,1.0,8.0,82,0.00,,,0.00,Wunderground v.1.15,2013-07-31 22:46:00,
2013-07-31 18:48:00,76.7,70.4,29.94,WSW,239,1.0,8.0,81,0.00,,,0.00,Wunderground v.1.15,2013-07-31 22:48:00,
2013-07-31 18:52:00,77.5,70.1,29.94,WSW,239,1.0,8.0,78,0.00,,,0.00,Wunderground v.1.15,2013-07-31 22:52:00,
2013-07-31 18:54:00,77.7,70.3,29.94,WSW,239,0.0,8.0,78,0.00,,,0.00,Wunderground v.1.15,2013-07-31 22:54:00,
2013-07-31 18:56:00,77.9,70.1,29.93,WSW,239,0.0,8.0,77,0.00,,,0.00,Wunderground v.1.15,2013-07-31 22:56:00,
2013-07-31 19:00:00,77.9,69.7,29.94,West,268,1.0,8.0,76,0.00,,,0.00,Wunderground v.1.15,2013-07-31 23:00:00,
2013-07-31 19:02:00,77.6,69.8,29.94,West,268,1.0,8.0,77,0.00,,,0.00,Wunderground v.1.15,2013-07-31 23:02:00,
2013-07-31 19:04:00,77.3,69.9,29.94,West,268,1.0,8.0,78,0.00,,,0.00,Wunderground v.1.15,2013-07-31 23:04:00,
2013-07-31 19:06:00,77.1,70.1,29.94,West,268,1.0,8.0,79,0.00,,,0.00,Wunderground v.1.15,2013-07-31 23:06:00,
2013-07-31 19:08:00,77.0,70.0,29.94,WSW,250,2.0,8.0,79,0.00,,,0.00,Wunderground v.1.15,2013-07-31 23:08:00,
2013-07-31 19:12:00,76.8,69.8,29.94,West,274,1.0,8.0,79,0.00,,,0.00,Wunderground v.1.15,2013-07-31 23:12:00,
2013-07-31 19:14:00,76.6,69.6,29.94,West,274,1.0,8.0,79,0.00,,,0.00,Wunderground v.1.15,2013-07-31 23:14:00,
2013-07-31 19:20:00,76.5,70.2,29.94,WSW,239,1.0,8.0,81,0.00,,,0.00,Wunderground v.1.15,2013-07-31 23:20:00,
2013-07-31 19:22:00,76.5,69.9,29.94,WSW,258,1.0,8.0,80,0.00,,,0.00,Wunderground v.1.15,2013-07-31 23:22:00,
2013-07-31 19:28:00,76.5,69.9,29.93,WSW,258,1.0,8.0,80,0.00,,,0.00,Wunderground v.1.15,2013-07-31 23:28:00,
2013-07-31 19:32:00,76.7,69.7,29.93,WSW,258,1.0,8.0,79,0.00,,,0.00,Wunderground v.1.15,2013-07-31 23:32:00,
2013-07-31 19:34:00,77.0,70.0,29.93,WSW,258,0.0,8.0,79,0.00,,,0.00,Wunderground v.1.15,2013-07-31 23:34:00,
2013-07-31 19:38:00,77.5,70.1,29.93,WSW,258,0.0,8.0,78,0.00,,,0.00,Wunderground v.1.15,2013-07-31 23:38:00,
2013-07-31 19:40:00,77.6,70.2,29.93,WSW,258,0.0,8.0,78,0.00,,,0.00,Wunderground v.1.15,2013-07-31 23:40:00,
2013-07-31 19:44:00,77.3,69.9,29.93,WSW,258,1.0,8.0,78,0.00,,,0.00,Wunderground v.1.15,2013-07-31 23:44:00,
2013-07-31 19:46:00,77.2,69.8,29.93,WSW,258,1.0,8.0,78,0.00,,,0.00,Wunderground v.1.15,2013-07-31 23:46:00,
2013-07-31 19:48:00,77.2,69.8,29.92,WSW,258,1.0,8.0,78,0.00,,,0.00,Wunderground v.1.15,2013-07-31 23:48:00,
2013-07-31 19:50:00,77.2,70.2,29.93,WSW,258,1.0,1.0,79,0.00,,,0.00,Wunderground v.1.15,2013-07-31 23:50:00,
2013-07-31 19:52:00,77.2,69.8,29.93,WSW,258,0.0,8.0,78,0.00,,,0.00,Wunderground v.1.15,2013-07-31 23:52:00,
2013-07-31 19:54:00,77.2,69.8,29.93,WSW,258,0.0,8.0,78,0.00,,,0.00,Wunderground v.1.15,2013-07-31 23:54:00,
2013-07-31 19:58:00,77.6,70.6,29.93,WSW,258,0.0,8.0,79,0.00,,,0.00,Wunderground v.1.15,2013-07-31 23:58:00,
2013-07-31 20:00:00,77.9,70.5,29.92,WSW,258,0.0,8.0,78,0.00,,,0.00,Wunderground v.1.15,2013-08-01 00:00:00,
2013-07-31 20:04:00,77.9,70.5,29.92,WSW,258,0.0,8.0,78,0.00,,,0.00,Wunderground v.1.15,2013-08-01 00:04:00,
2013-07-31 20:06:00,77.5,70.5,29.93,WSW,257,1.0,8.0,79,0.00,,,0.00,Wunderground v.1.15,2013-08-01 00:06:00,
2013-07-31 20:08:00,77.0,70.0,29.93,WSW,251,1.0,8.0,79,0.00,,,0.00,Wunderground v.1.15,2013-08-01 00:08:00,
2013-07-31 20:12:00,76.1,70.2,29.93,WSW,251,1.0,8.0,82,0.00,,,0.00,Wunderground v.1.15,2013-08-01 00:12:00,
2013-07-31 20:14:00,75.8,69.9,29.93,WSW,250,1.0,8.0,82,0.00,,,0.00,Wunderground v.1.15,2013-08-01 00:14:00,
2013-07-31 20:16:00,75.5,70.0,29.93,WSW,239,1.0,8.0,83,0.00,,,0.00,Wunderground v.1.15,2013-08-01 00:16:00,
2013-07-31 20:18:00,75.2,69.7,29.93,WSW,238,1.0,8.0,83,0.00,,,0.00,Wunderground v.1.15,2013-08-01 00:18:00,
2013-07-31 20:24:00,74.7,69.9,29.93,WSW,238,1.0,8.0,85,0.00,,,0.00,Wunderground v.1.15,2013-08-01 00:24:00,
2013-07-31 20:26:00,74.6,69.8,29.93,WSW,238,1.0,8.0,85,0.00,,,0.00,Wunderground v.1.15,2013-08-01 00:26:00,
2013-07-31 20:28:00,74.4,69.6,29.93,SW,233,1.0,8.0,85,0.00,,,0.00,Wunderground v.1.15,2013-08-01 00:28:00,
2013-07-31 20:32:00,74.2,69.4,29.93,SW,216,2.0,8.0,85,0.00,,,0.00,Wunderground v.1.15,2013-08-01 00:32:00,
2013-07-31 20:34:00,74.2,69.4,29.93,SW,216,2.0,8.0,85,0.00,,,0.00,Wunderground v.1.15,2013-08-01 00:34:00,
2013-07-31 20:36:00,74.1,69.3,29.93,SW,216,2.0,8.0,85,0.00,,,0.00,Wunderground v.1.15,2013-08-01 00:36:00,
2013-07-31 20:38:00,74.0,69.2,29.93,SW,216,2.0,8.0,85,0.00,,,0.00,Wunderground v.1.15,2013-08-01 00:38:00,
2013-07-31 20:42:00,74.0,69.5,29.93,SW,216,1.0,8.0,86,0.00,,,0.00,Wunderground v.1.15,2013-08-01 00:42:00,
2013-07-31 20:44:00,73.9,69.4,29.93,SW,216,2.0,8.0,86,0.00,,,0.00,Wunderground v.1.15,2013-08-01 00:44:00,
2013-07-31 20:46:00,73.9,69.4,29.93,SW,216,2.0,8.0,86,0.00,,,0.00,Wunderground v.1.15,2013-08-01 00:46:00,
2013-07-31 20:50:00,73.9,69.4,29.93,SSW,201,2.0,2.0,86,0.00,,,0.00,Wunderground v.1.15,2013-08-01 00:50:00,
2013-07-31 20:52:00,73.9,69.4,29.93,SSW,201,2.0,8.0,86,0.00,,,0.00,Wunderground v.1.15,2013-08-01 00:52:00,
2013-07-31 20:54:00,73.8,69.3,29.93,SSW,201,1.0,8.0,86,0.00,,,0.00,Wunderground v.1.15,2013-08-01 00:54:00,
2013-07-31 20:58:00,73.7,69.2,29.93,SSW,201,1.0,8.0,86,0.00,,,0.00,Wunderground v.1.15,2013-08-01 00:58:00,
2013-07-31 21:00:00,73.7,69.2,29.93,SSW,198,2.0,8.0,86,0.00,,,0.00,Wunderground v.1.15,2013-08-01 01:00:00,
2013-07-31 21:02:00,73.7,69.2,29.93,SSW,198,2.0,8.0,86,0.00,,,0.00,Wunderground v.1.15,2013-08-01 01:02:00,
2013-07-31 21:04:00,73.6,69.2,29.93,South,169,2.0,8.0,86,0.00,,,0.00,Wunderground v.1.15,2013-08-01 01:04:00,
2013-07-31 21:06:00,73.4,69.3,29.93,South,169,2.0,8.0,87,0.00,,,0.00,Wunderground v.1.15,2013-08-01 01:06:00,
2013-07-31 21:12:00,73.0,69.2,29.93,South,169,1.0,8.0,88,0.00,,,0.00,Wunderground v.1.15,2013-08-01 01:12:00,
2013-07-31 21:16:00,72.8,69.0,29.93,South,170,1.0,8.0,88,0.00,,,0.00,Wunderground v.1.15,2013-08-01 01:16:00,
2013-07-31 21:18:00,72.8,69.4,29.93,South,172,1.0,8.0,89,0.00,,,0.00,Wunderground v.1.15,2013-08-01 01:18:00,
2013-07-31 21:22:00,72.8,69.4,29.94,South,182,2.0,8.0,89,0.00,,,0.00,Wunderground v.1.15,2013-08-01 01:22:00,
2013-07-31 21:26:00,73.0,69.2,29.94,South,186,2.0,8.0,88,0.00,,,0.00,Wunderground v.1.15,2013-08-01 01:26:00,
2013-07-31 21:28:00,73.1,69.3,29.94,South,186,2.0,8.0,88,0.00,,,0.00,Wunderground v.1.15,2013-08-01 01:28:00,
2013-07-31 21:32:00,73.0,69.6,29.94,NE,44,2.0,8.0,89,0.00,,,0.00,Wunderground v.1.15,2013-08-01 01:32:00,
2013-07-31 21:34:00,72.9,69.5,29.94,NE,44,2.0,8.0,89,0.00,,,0.00,Wunderground v.1.15,2013-08-01 01:34:00,
2013-07-31 21:36:00,72.8,69.4,29.94,NE,44,1.0,8.0,89,0.00,,,0.00,Wunderground v.1.15,2013-08-01 01:36:00,
2013-07-31 21:40:00,72.6,69.2,29.94,NE,44,1.0,1.0,89,0.00,,,0.00,Wunderground v.1.15,2013-08-01 01:40:00,
2013-07-31 21:42:00,72.4,69.0,29.94,NE,44,0.0,8.0,89,0.00,,,0.00,Wunderground v.1.15,2013-08-01 01:42:00,
2013-07-31 21:46:00,72.2,69.1,29.94,NE,44,0.0,8.0,90,0.00,,,0.00,Wunderground v.1.15,2013-08-01 01:46:00,
2013-07-31 21:48:00,72.1,69.0,29.94,NE,44,0.0,8.0,90,0.00,,,0.00,Wunderground v.1.15,2013-08-01 01:48:00,
2013-07-31 21:52:00,71.9,68.8,29.94,NE,47,1.0,8.0,90,0.00,,,0.00,Wunderground v.1.15,2013-08-01 01:52:00,
2013-07-31 21:54:00,71.7,68.6,29.94,NE,47,1.0,8.0,90,0.00,,,0.00,Wunderground v.1.15,2013-08-01 01:54:00,
2013-07-31 21:56:00,71.6,68.8,29.94,NE,47,1.0,8.0,91,0.00,,,0.00,Wunderground v.1.15,2013-08-01 01:56:00,
2013-07-31 22:00:00,71.4,68.6,29.95,NE,47,1.0,8.0,91,0.00,,,0.00,Wunderground v.1.15,2013-08-01 02:00:00,
2013-07-31 22:04:00,71.3,68.9,29.95,NE,48,1.0,8.0,92,0.00,,,0.00,Wunderground v.1.15,2013-08-01 02:04:00,
2013-07-31 22:06:00,71.3,68.9,29.95,East,89,2.0,8.0,92,0.00,,,0.00,Wunderground v.1.15,2013-08-01 02:06:00,
2013-07-31 22:10:00,71.2,68.8,29.95,East,91,2.0,2.0,92,0.00,,,0.00,Wunderground v.1.15,2013-08-01 02:10:00,
2013-07-31 22:14:00,71.2,68.8,29.95,East,90,1.0,8.0,92,0.00,,,0.00,Wunderground v.1.15,2013-08-01 02:14:00,
2013-07-31 22:16:00,71.2,68.8,29.95,East,91,1.0,8.0,92,0.00,,,0.00,Wunderground v.1.15,2013-08-01 02:16:00,
2013-07-31 22:18:00,71.2,68.8,29.95,East,91,1.0,8.0,92,0.00,,,0.00,Wunderground v.1.15,2013-08-01 02:18:00,
2013-07-31 22:20:00,71.3,68.9,29.95,NNE,33,1.0,8.0,92,0.00,,,0.00,Wunderground v.1.15,2013-08-01 02:20:00,
2013-07-31 22:22:00,71.3,68.9,29.95,NE,34,1.0,8.0,92,0.00,,,0.00,Wunderground v.1.15,2013-08-01 02:22:00,
2013-07-31 22:24:00,71.3,68.9,29.95,NE,52,2.0,8.0,92,0.00,,,0.00,Wunderground v.1.15,2013-08-01 02:24:00,
2013-07-31 22:28:00,71.2,68.8,29.95,NE,52,2.0,8.0,92,0.00,,,0.00,Wunderground v.1.15,2013-08-01 02:28:00,
2013-07-31 22:30:00,71.2,68.8,29.95,NE,52,2.0,2.0,92,0.00,,,0.00,Wunderground v.1.15,2013-08-01 02:30:00,
2013-07-31 22:34:00,71.3,69.2,29.95,NE,53,1.0,8.0,93,0.00,,,0.00,Wunderground v.1.15,2013-08-01 02:34:00,
2013-07-31 22:36:00,71.3,69.2,29.95,NE,53,0.0,8.0,93,0.00,,,0.00,Wunderground v.1.15,2013-08-01 02:36:00,
2013-07-31 22:38:00,71.3,69.2,29.95,East,80,0.0,8.0,93,0.00,,,0.00,Wunderground v.1.15,2013-08-01 02:38:00,
2013-07-31 22:44:00,71.4,69.3,29.95,South,171,1.0,8.0,93,0.00,,,0.00,Wunderground v.1.15,2013-08-01 02:44:00,
2013-07-31 22:46:00,71.4,69.0,29.95,South,174,1.0,8.0,92,0.00,,,0.00,Wunderground v.1.15,2013-08-01 02:46:00,
2013-07-31 22:48:00,71.3,68.9,29.95,South,174,1.0,8.0,92,0.00,,,0.00,Wunderground v.1.15,2013-08-01 02:48:00,
2013-07-31 22:50:00,71.3,68.9,29.95,South,174,2.0,2.0,92,0.00,,,0.00,Wunderground v.1.15,2013-08-01 02:50:00,
2013-07-31 22:52:00,71.3,68.9,29.95,South,174,2.0,8.0,92,0.00,,,0.00,Wunderground v.1.15,2013-08-01 02:52:00,
2013-07-31 22:58:00,71.2,68.8,29.96,South,174,1.0,8.0,92,0.00,,,0.00,Wunderground v.1.15,2013-08-01 02:58:00,
2013-07-31 23:00:00,71.2,68.8,29.96,South,174,0.0,8.0,92,0.00,,,0.00,Wunderground v.1.15,2013-08-01 03:00:00,
2013-07-31 23:02:00,71.2,68.8,29.96,South,174,0.0,8.0,92,0.00,,,0.00,Wunderground v.1.15,2013-08-01 03:02:00,
2013-07-31 23:06:00,71.2,68.8,29.96,South,174,0.0,8.0,92,0.00,,,0.00,Wunderground v.1.15,2013-08-01 03:06:00,
2013-07-31 23:10:00,71.2,68.8,29.96,South,174,0.0,8.0,92,0.00,,,0.00,Wunderground v.1.15,2013-08-01 03:10:00,
2013-07-31 23:12:00,71.2,68.8,29.96,South,174,0.0,8.0,92,0.00,,,0.00,Wunderground v.1.15,2013-08-01 03:12:00,
2013-07-31 23:14:00,71.2,68.8,29.96,South,174,0.0,8.0,92,0.00,,,0.00,Wunderground v.1.15,2013-08-01 03:14:00,
2013-07-31 23:18:00,71.2,68.8,29.96,South,174,1.0,8.0,92,0.00,,,0.00,Wunderground v.1.15,2013-08-01 03:18:00,
2013-07-31 23:20:00,71.3,68.9,29.96,South,174,1.0,8.0,92,0.00,,,0.00,Wunderground v.1.15,2013-08-01 03:20:00,
2013-07-31 23:24:00,71.3,68.9,29.95,South,174,2.0,8.0,92,0.00,,,0.00,Wunderground v.1.15,2013-08-01 03:24:00,
2013-07-31 23:27:00,71.2,68.8,29.95,South,176,2.0,8.0,92,0.00,,,0.00,Wunderground v.1.15,2013-08-01 03:27:00,
2013-07-31 23:28:00,71.2,68.8,29.95,South,177,3.0,8.0,92,0.00,,,0.00,Wunderground v.1.15,2013-08-01 03:28:00,
2013-07-31 23:30:00,71.2,68.8,29.95,South,177,3.0,3.0,92,0.00,,,0.00,Wunderground v.1.15,2013-08-01 03:30:00,
2013-07-31 23:32:00,71.3,68.9,29.95,South,187,3.0,8.0,92,0.00,,,0.00,Wunderground v.1.15,2013-08-01 03:32:00,
2013-07-31 23:36:00,71.3,68.9,29.95,SSW,196,3.0,8.0,92,0.00,,,0.00,Wunderground v.1.15,2013-08-01 03:36:00,
2013-07-31 23:40:00,71.4,69.0,29.95,SSW,200,2.0,8.0,92,0.00,,,0.00,Wunderground v.1.15,2013-08-01 03:40:00,
2013-07-31 23:42:00,71.4,69.0,29.95,SW,220,2.0,8.0,92,0.00,,,0.00,Wunderground v.1.15,2013-08-01 03:42:00,
2013-07-31 23:46:00,71.4,69.0,29.95,SW,220,2.0,8.0,92,0.00,,,0.00,Wunderground v.1.15,2013-08-01 03:46:00,
2013-07-31 23:48:00,71.5,69.1,29.95,SW,217,2.0,8.0,92,0.00,,,0.00,Wunderground v.1.15,2013-08-01 03:48:00,
2013-07-31 23:52:00,71.5,69.1,29.95,NNW,337,2.0,8.0,92,0.00,,,0.00,Wunderground v.1.15,2013-08-01 03:52:00,
2013-07-31 23:54:00,71.4,69.0,29.95,North,354,3.0,8.0,92,0.00,,,0.00,Wunderground v.1.15,2013-08-01 03:54:00,
2013-07-31 23:58:00,71.2,68.8,29.95,WNW,287,4.0,8.0,92,0.00,,,0.00,Wunderground v.1.15,2013-08-01 03:58:00,